FENGYUN 1C DEB, 35174

Orbit data source: Space-Track

FENGYUN 1C DEB, 35174 is space debris in SSO originally from a launch on Mon, 10 May 1999 UTC launched from the Taiyaun Space Center, China (TSC). Fengyun 1C debris stems from the Chinese weather satellite Fengyun-1C, which was intentionally destroyed by a Chinese anti-satellite missile in 2007. This event dramatically increased the amount of space debris, with thousands of trackable fragments posing hazards to satellites and human spaceflight. The Fengyun 1C debris cloud has become a focal point in discussions about space sustainability and the need for international regulations to prevent the creation of new debris.

Loading next visibility...
Identifier
35174, 1999-025DNE
Orbit
SSO
Country
Flag of CNCN / PRC
Related business
Manufacturer
Unknown
Mission
Spacecraft
Bus & Motor
Unknown
Mass
Unknown
Launch date (UTC)
1999-05-10 (27 years ago)
Launch vehicle
Unknown
Launch site
Taiyaun Space Center, China (TSC)
Object type
Payload
Rocket body
Debris
Shape & HBR
Unknown shape, 0.1 m
Radar Cross Section
Small (<0.1 m²)

Expand to show TLE details & history
Last TLE update: 6 days ago

TLE from 6 days ago
0 FENGYUN 1C DEB
1 35174U 99025DNE 26231.28638334  .00058146  00000-0  24598-2 0  9990
2 35174  98.9611 252.1826 0108756  82.2896 279.0666 15.17687218939287
Epoch: 2026-08-19T06:52Z
TLE epoch observation values (Epoch: 2026-08-19T06:52:23.520Z)
Latitude
-0.0001°
Longitude
-178.55741°
Altitude
504.856 km
Speed
7.618 km/s
True Right ascension
16h 48m 43s
True Declination
0° 00' 00"
Sunlit
Object was in daylight at epoch
Visualization orbit readout
Latitude
Unknown
Longitude
Unknown
Altitude
Unknown
Speed
Unknown
Apparent Right ascension
Unknown
Apparent Declination
Unknown
Sunlit
N/A
Visualization observer readout
Local Sidereal Time
17:10:11
Azimuth
Unknown
Elevation
Unknown
Doppler factor
Unknown
Orbital elements
Apogee altitude
584.785 km
Perigee altitude
434.963 km
Semi-major axis
6,888.011 km
Eccentricity
0.01088
Inclination
98.9611°
RAAN
252.1826°
Arg. of periapsis
82.2896°
True anomaly
277.83337°
Mean anomaly
279.0666°
Eccentric anomaly
278.45024°
Mean motion
3.79667 °/min
Orbital period
94.82 mins
BSTAR
0.0024598
Loading maneuver chart data...
Computing Atmospheric mass density...
Loading historical data...
Loading historical data...
Loading historical data...
Loading historical data...
Loading historical data...
Loading historical data...
Loading historical data...

Documentation

Showing up to 5 results
|